Weather History for KENV - October, 2013

Change the Weather History Date:

Friday, October 4, 2013

  Actual Average Record
Temperature  
Mean Temperature 45 °F -  
Max Temperature 51 °F 68 °F 87 °F (1997)
Min Temperature 37 °F 45 °F 34 °F (1957)
Degree Days  
Heating Degree Days 20    
Moisture  
Dew Point 26 °F    
Average Humidity 47    
Maximum Humidity 70    
Minimum Humidity 30    
Precipitation  
Precipitation 0.00 in - - ()
Sea Level Pressure  
Sea Level Pressure 30.33 in    
Wind  
Wind Speed 10 mph (NNW)    
Max Wind Speed 18 mph    
Max Gust Speed 22 mph    
Visibility 10 miles    
Events      
Averages and records for this station are not official NWS values.
T = Trace of Precipitation, MM = Missing Value Source: NWS Daily Summary

Daily Weather History Graph

Daily Weather History Graph

Search for Another Location

Airport or City:

Trip Planner

Search our weather history database for the weather conditions in past years. The results will help you decide how hot, cold, wet, or windy it might be!

Date:

Astronomy

Oct. 04, 2013 Rise Set
Actual Time 7:36 AM MDT 7:12 PM MDT
Civil Twilight 7:08 AM MDT 7:39 PM MDT
Nautical Twilight 6:37 AM MDT 8:11 PM MDT
Astronomical Twilight 6:05 AM MDT 8:43 PM MDT
Moon 7:15 AM MDT (10/4) 6:57 PM MDT (10/4)
Length of Visible Light 12h 31m
Length of Day
11h 36m
Waning Crescent, 0% of the Moon is Illuminated
Oct 4
Waning Crescent
Oct 4
New
Oct 11
First Quarter
Oct 18
Full
Oct 26
Last Quarter

Hourly Weather History & Observations

Time (MDT) Temp. Windchill Dew Point Humidity Pressure Visibility Wind Dir Wind Speed Gust Speed Precip Events Conditions
12:15 AM 44.6 °F 36.9 °F 28.4 °F 53% 30.15 in 10.0 mi NW 18.4 mph 21.9 mph N/A   Mostly Cloudy
12:35 AM 42.8 °F 35.4 °F 28.4 °F 57% 30.15 in 10.0 mi NW 15.0 mph - N/A   Scattered Clouds
12:55 AM 42.8 °F 34.5 °F 28.4 °F 57% 30.16 in 10.0 mi NW 18.4 mph 21.9 mph N/A   Scattered Clouds
1:15 AM 42.8 °F 38.6 °F 28.4 °F 57% 30.17 in 10.0 mi NNW 6.9 mph - N/A   Scattered Clouds
1:35 AM 42.8 °F - 30.2 °F 61% 30.18 in 10.0 mi Calm Calm - N/A   Mostly Cloudy
1:55 AM 42.8 °F 41.1 °F 30.2 °F 61% 30.19 in 10.0 mi SSE 3.5 mph - N/A   Overcast
2:15 AM 42.8 °F 40.1 °F 28.4 °F 57% 30.19 in 10.0 mi West 4.6 mph - N/A   Overcast
2:35 AM 44.6 °F 38.8 °F 28.4 °F 53% 30.20 in 10.0 mi NNW 11.5 mph 18.4 mph N/A   Overcast
2:55 AM 42.8 °F 35.4 °F 28.4 °F 57% 30.21 in 10.0 mi NW 15.0 mph - N/A   Overcast
3:15 AM 42.8 °F 37.5 °F 28.4 °F 57% 30.20 in 10.0 mi NNW 9.2 mph - N/A   Overcast
3:35 AM 42.8 °F 35.8 °F 28.4 °F 57% 30.21 in 10.0 mi NW 13.8 mph - N/A   Mostly Cloudy
3:55 AM 42.8 °F 35.8 °F 28.4 °F 57% 30.22 in 10.0 mi NW 13.8 mph - N/A   Overcast
4:15 AM 42.8 °F 35.4 °F 28.4 °F 57% 30.22 in 10.0 mi NW 15.0 mph - N/A   Overcast
4:55 AM 42.8 °F 35.1 °F 26.6 °F 53% 30.23 in 10.0 mi NW 16.1 mph - N/A   Overcast
5:15 AM 42.8 °F 35.8 °F 26.6 °F 53% 30.23 in 10.0 mi NW 13.8 mph - N/A   Overcast
5:35 AM 42.8 °F 35.8 °F 26.6 °F 53% 30.24 in 10.0 mi NW 13.8 mph - N/A   Overcast
5:55 AM 42.8 °F 35.1 °F 26.6 °F 53% 30.24 in 10.0 mi NW 16.1 mph 20.7 mph N/A   Overcast
6:15 AM 42.8 °F 36.6 °F 26.6 °F 53% 30.25 in 10.0 mi NNW 11.5 mph - N/A   Overcast
6:35 AM 42.8 °F 36.6 °F 26.6 °F 53% 30.26 in 10.0 mi NNW 11.5 mph - N/A   Overcast
6:55 AM 42.8 °F 37.0 °F 26.6 °F 53% 30.27 in 10.0 mi NW 10.4 mph - N/A   Overcast
7:15 AM 42.8 °F 37.0 °F 26.6 °F 53% 30.28 in 10.0 mi NW 10.4 mph - N/A   Overcast
7:35 AM 42.8 °F 38.0 °F 26.6 °F 53% 30.28 in 10.0 mi NNW 8.1 mph - N/A   Mostly Cloudy
7:55 AM 42.8 °F 37.5 °F 26.6 °F 53% 30.30 in 10.0 mi NNW 9.2 mph - N/A   Mostly Cloudy
8:15 AM 41.0 °F 35.8 °F 28.4 °F 61% 30.31 in 10.0 mi NW 8.1 mph - N/A   Mostly Cloudy
8:35 AM 39.2 °F - 30.2 °F 70% 30.31 in 10.0 mi Calm Calm - N/A   Overcast
8:55 AM 41.0 °F 37.1 °F 28.4 °F 61% 30.32 in 10.0 mi WNW 5.8 mph - N/A   Overcast
9:15 AM 42.8 °F 35.4 °F 28.4 °F 57% 30.33 in 10.0 mi NW 15.0 mph - N/A   Mostly Cloudy
9:35 AM 42.8 °F 35.1 °F 26.6 °F 53% 30.33 in 10.0 mi NNW 16.1 mph - N/A   Mostly Cloudy
9:55 AM 42.8 °F 37.0 °F 26.6 °F 53% 30.35 in 10.0 mi North 10.4 mph - N/A   Scattered Clouds
10:15 AM 42.8 °F 38.6 °F 28.4 °F 57% 30.36 in 10.0 mi North 6.9 mph - N/A   Mostly Cloudy
10:35 AM 42.8 °F 39.3 °F 28.4 °F 57% 30.37 in 10.0 mi NNW 5.8 mph - N/A   Mostly Cloudy
11:15 AM 44.6 °F 39.7 °F 28.4 °F 53% 30.37 in 10.0 mi NW 9.2 mph - N/A   Overcast
11:35 AM 46.4 °F 41.9 °F 26.6 °F 46% 30.37 in 10.0 mi North 9.2 mph - N/A   Scattered Clouds
11:55 AM 46.4 °F 41.1 °F 24.8 °F 43% 30.38 in 10.0 mi NNW 11.5 mph 19.6 mph N/A   Scattered Clouds
12:15 PM 46.4 °F 41.5 °F 24.8 °F 43% 30.38 in 10.0 mi NW 10.4 mph 16.1 mph N/A   Overcast
12:35 PM 46.4 °F 42.4 °F 23.0 °F 40% 30.38 in 10.0 mi NE 8.1 mph - N/A   Overcast
12:55 PM 48.2 °F - 23.0 °F 37% 30.38 in 10.0 mi North 15.0 mph 19.6 mph N/A   Overcast
1:15 PM 48.2 °F - 23.0 °F 37% 30.38 in 10.0 mi NE 11.5 mph - N/A   Overcast
1:35 PM 48.2 °F - 23.0 °F 37% 30.38 in 10.0 mi North 10.4 mph - N/A   Mostly Cloudy
1:55 PM 48.2 °F - 23.0 °F 37% 30.38 in 10.0 mi North 10.4 mph 16.1 mph N/A   Overcast
2:15 PM 50.0 °F - 23.0 °F 35% 30.38 in 10.0 mi ENE 8.1 mph - N/A   Mostly Cloudy
2:35 PM 51.8 °F - 23.0 °F 33% 30.37 in 10.0 mi North 13.8 mph 18.4 mph N/A   Scattered Clouds
2:55 PM 51.8 °F - 23.0 °F 33% 30.38 in 10.0 mi NNE 10.4 mph 19.6 mph N/A   Mostly Cloudy
3:15 PM 51.8 °F - 23.0 °F 33% 30.38 in 10.0 mi NE 10.4 mph - N/A   Mostly Cloudy
3:35 PM 51.8 °F - 23.0 °F 33% 30.38 in 10.0 mi NNW 12.7 mph - N/A   Scattered Clouds
4:15 PM 51.8 °F - 23.0 °F 33% 30.38 in 10.0 mi North 5.8 mph - N/A   Mostly Cloudy
4:35 PM 51.8 °F - 21.2 °F 30% 30.38 in 10.0 mi North 10.4 mph - N/A   Partly Cloudy
4:55 PM 51.8 °F - 23.0 °F 33% 30.38 in 10.0 mi NE 6.9 mph - N/A   Clear
5:15 PM 51.8 °F - 23.0 °F 33% 30.38 in 10.0 mi North 9.2 mph - N/A   Clear
5:35 PM 51.8 °F - 23.0 °F 33% 30.39 in 10.0 mi NNW 8.1 mph - N/A   Clear
5:55 PM 51.8 °F - 21.2 °F 30% 30.39 in 10.0 mi NNE 8.1 mph - N/A   Clear
6:15 PM 51.8 °F - 23.0 °F 33% 30.39 in 10.0 mi NE 6.9 mph - N/A   Clear
6:35 PM 50.0 °F - 23.0 °F 35% 30.40 in 10.0 mi NNE 5.8 mph - N/A   Clear
6:55 PM 50.0 °F - 21.2 °F 32% 30.40 in 10.0 mi North 3.5 mph - N/A   Clear
7:15 PM 48.2 °F - 23.0 °F 37% 30.40 in 10.0 mi NE 4.6 mph - N/A   Clear
7:35 PM 48.2 °F - 23.0 °F 37% 30.40 in 10.0 mi East 4.6 mph - N/A   Clear
7:55 PM 48.2 °F - 23.0 °F 37% 30.41 in 10.0 mi Calm Calm - N/A   Clear
8:15 PM 48.2 °F - 24.8 °F 40% 30.42 in 10.0 mi Calm Calm - N/A   Clear
8:35 PM 46.4 °F - 24.8 °F 43% 30.43 in 10.0 mi Calm Calm - N/A   Clear
8:55 PM 46.4 °F 43.5 °F 24.8 °F 43% 30.43 in 10.0 mi WSW 5.8 mph - N/A   Clear
9:15 PM 42.8 °F 40.1 °F 24.8 °F 49% 30.43 in 10.0 mi WNW 4.6 mph - N/A   Clear
9:35 PM 44.6 °F 43.1 °F 24.8 °F 46% 30.43 in 10.0 mi WNW 3.5 mph - N/A   Clear
9:55 PM 44.6 °F - 24.8 °F 46% 30.43 in 10.0 mi Calm Calm - N/A   Clear
10:15 PM 42.8 °F 41.1 °F 24.8 °F 49% 30.43 in 10.0 mi West 3.5 mph - N/A   Clear
10:35 PM 41.0 °F 39.0 °F 24.8 °F 53% 30.43 in 10.0 mi West 3.5 mph - N/A   Clear
10:55 PM 39.2 °F 37.0 °F 24.8 °F 56% 30.43 in 10.0 mi WSW 3.5 mph - N/A   Clear
11:15 PM 39.2 °F 35.9 °F 23.0 °F 52% 30.43 in 10.0 mi SW 4.6 mph - N/A   Clear
11:35 PM 39.2 °F 35.9 °F 23.0 °F 52% 30.43 in 10.0 mi West 4.6 mph - N/A   Clear
11:55 PM 37.4 °F 34.9 °F 24.8 °F 60% 30.43 in 10.0 mi SW 3.5 mph - N/A   Clear